Weather Roundup
Issued by NWS Springfield, MO

Home | Current Version | Previous Version | Text Only | Print | Product List | Glossary On
Versions: 1 2 3 4 5 6 7 8 9 10 11 12 13 14 15 16 17 18 19 20 21 22 23 24 25 26 27 28 29 30 31 32 33 34 35 36 37 38 39 40 41 42 43 44 45 46 47 48 49 50
000
NZUS99 KSGF 271159
HRRSGF

HOURLY WEATHER
NATIONAL WEATHER SERVICE SPRINGFIELD MO
700 AM CDT WED AUG 27 2014

......SGF CWA......

CITY           SKY/WX    TMP DP  RH WIND       PRES   REMARKS
SPRINGFIELD    CLEAR     72  67  84 S6        30.10R
6HR MIN TEMP:  71; 6HR MAX TEMP:  74;

JOPLIN         CLEAR     73  67  81 S7        30.09R
6HR MIN TEMP:  72; 6HR MAX TEMP:  76;

WEST PLAINS    CLEAR     70  66  87 CALM      30.12S
6HR MIN TEMP:  68; 6HR MAX TEMP:  74;

ROLLA          CLEAR     70  67  90 S6        30.08R
6HR MIN TEMP:  70; 6HR MAX TEMP:  73;

OSAGE BEACH    CLEAR     70  64  83 CALM      30.08R
BRANSON        PTCLDY    70  68  94 CALM      30.12S

......SURROUNDING SGF CWA......

CITY           SKY/WX    TMP DP  RH WIND       PRES   REMARKS
CHANUTE        CLEAR     71  66  84 CALM      30.08R
PARSONS        CLEAR     70  67  90 CALM      30.09R
COFFEYVILLE    CLEAR     73  68  84 SW3       30.07R
EMPORIA        CLEAR     70  67  90 S5        30.08R
SILOAM SPRINGS CLEAR     70  63  78 E3        30.11S
HARRISON AR    CLEAR     69  69 100 SW3       30.12S FOG
NEAR YELLVILLE CLEAR     70  64  83 CALM      30.09S

......KANSAS AND MISSOURI......

CITY           SKY/WX    TMP DP  RH WIND       PRES   REMARKS
KANSAS CTY INT MOCLDY    72  71  97 NW10      30.10R
DOWNTOWN KC    PTCLDY    76  71  85 S3        30.07R
COLUMBIA       FOG       71  71 100 E5        30.07S VSB 1/4
SEDALIA        CLEAR     71  68  90 CALM      30.08R FOG
ST JOSEPH      CLOUDY    69  66  90 N9        30.14R
ST LOUIS       PTCLDY    76  70  82 CALM      30.08R
SPIRIT OF STL  CLEAR     72  70  93 CALM      30.06R
KIRKSVILLE     PTCLDY    69  67  93 NE6       30.11R
WICHITA        MOCLDY    71  66  84 CALM      30.09R
TOPEKA         CLOUDY    76  72  87 E6        30.07R
OLATHE         CLEAR     71  68  90 S3        30.09R

......TENNESSEE......

CITY           SKY/WX    TMP DP  RH WIND       PRES   REMARKS
MEMPHIS        PTCLDY    75  67  76 CALM      30.08R
NASHVILLE      MOCLDY    71  69  93 CALM      30.11R

......ARKANSAS.......

CITY           SKY/WX    TMP DP  RH WIND       PRES   REMARKS
FAYETTEVILLE   CLEAR     67  67 100 CALM      30.11S FOG
FT SMITH       CLEAR     75  72  90 CALM      30.05F
LITTLE ROCK    MOCLDY    77  73  87 CALM      30.07R

......OKLAHOMA.......

CITY           SKY/WX    TMP DP  RH WIND       PRES   REMARKS
TULSA          MOCLDY    75  69  81 CALM      30.06R
PONCA CITY     PTCLDY    72  66  81 S5        30.09R
MCALESTER      CLEAR     72  70  93 E3        30.07R
OKLAHOMA CITY  PTCLDY    71  67  87 SE3       30.09R

......IOWA............

CITY           SKY/WX    TMP DP  RH WIND       PRES   REMARKS
DES MOINES     CLOUDY    68  62  81 NE7       30.14R
QUAD CITIES    MOCLDY    69  61  75 NE7       30.13R

......ILLINOIS........

CITY           SKY/WX    TMP DP  RH WIND       PRES   REMARKS
QUINCY         PTCLDY    70  68  93 NE8       30.10R
CHICAGO        MOCLDY    68  61  78 N6        30.14R




USA.gov is the U.S. government's official web portal to all federal, state and local government web resources and services.